Radiation Dose at Monitoring Post of Fukushima Daini Nuclear Power Station
Date,Time,MP-1(microSv/h),MP-2(microSv/h),MP-3(microSv/h),MP-4(microSv/h),MP-5(microSv/h),MP-6(microSv/h),MP-7(microSv/h),Wind Direction,Wind Velocity(m/s),Rain
2016/01/01,00:00,0.461,0.270,0.487,0.441,0.419,0.222,0.194,north-northwest,4.2,No
2016/01/01,00:10,0.460,0.271,0.485,0.440,0.421,0.222,0.195,north-northwest,4.9,No
2016/01/01,00:20,0.461,0.269,0.484,0.442,0.422,0.222,0.196,north-northwest,5.0,No
2016/01/01,00:30,0.460,0.271,0.483,0.443,0.418,0.222,0.195,north,4.9,No
2016/01/01,00:40,0.460,0.271,0.486,0.443,0.420,0.222,0.196,north,5.7,No
2016/01/01,00:50,0.461,0.270,0.487,0.441,0.419,0.222,0.195,north,6.7,No
2016/01/01,01:00,0.462,0.270,0.485,0.442,0.422,0.223,0.196,north,5.5,No
2016/01/01,01:10,0.460,0.270,0.484,0.442,0.422,0.222,0.195,north,4.2,No
2016/01/01,01:20,0.464,0.270,0.485,0.442,0.421,0.222,0.195,north-northwest,4.6,No
2016/01/01,01:30,0.463,0.271,0.486,0.441,0.421,0.223,0.195,north-northwest,6.2,No
2016/01/01,01:40,0.462,0.270,0.485,0.441,0.422,0.222,0.196,north-northwest,6.7,No
2016/01/01,01:50,0.459,0.271,0.485,0.442,0.423,0.222,0.196,north-northwest,6.0,No
2016/01/01,02:00,0.463,0.270,0.485,0.442,0.422,0.221,0.195,north-northwest,7.0,No
2016/01/01,02:10,0.461,0.271,0.486,0.443,0.421,0.224,0.196,northwest,7.0,No
2016/01/01,02:20,0.461,0.268,0.485,0.444,0.420,0.223,0.196,northwest,3.9,No
2016/01/01,02:30,0.461,0.272,0.487,0.442,0.421,0.223,0.194,northwest,3.2,No
2016/01/01,02:40,0.461,0.271,0.485,0.444,0.421,0.222,0.195,northwest,1.5,No
2016/01/01,02:50,0.461,0.271,0.488,0.442,0.422,0.223,0.194,north-northwest,5.8,No
2016/01/01,03:00,0.461,0.270,0.487,0.442,0.419,0.223,0.196,northwest,5.8,No
2016/01/01,03:10,0.461,0.271,0.485,0.441,0.420,0.222,0.195,north-northwest,2.6,No
2016/01/01,03:20,0.461,0.271,0.487,0.443,0.421,0.222,0.195,north,2.3,No
2016/01/01,03:30,0.460,0.271,0.486,0.442,0.421,0.223,0.194,north,2.2,No
2016/01/01,03:40,0.462,0.270,0.486,0.442,0.421,0.223,0.195,north-northwest,4.3,No
2016/01/01,03:50,0.461,0.271,0.487,0.440,0.419,0.223,0.195,north-northwest,3.6,No
2016/01/01,04:00,0.460,0.271,0.484,0.442,0.421,0.223,0.195,north-northwest,4.2,No
2016/01/01,04:10,0.460,0.270,0.486,0.442,0.421,0.222,0.195,north-northwest,7.0,No
2016/01/01,04:20,0.460,0.271,0.486,0.442,0.419,0.222,0.195,north-northwest,7.0,No
2016/01/01,04:30,0.460,0.269,0.486,0.443,0.419,0.222,0.194,north,5.9,No
2016/01/01,04:40,0.463,0.271,0.486,0.441,0.420,0.222,0.195,north,3.7,No
2016/01/01,04:50,0.460,0.270,0.486,0.441,0.421,0.222,0.195,north,3.1,No
2016/01/01,05:00,0.460,0.269,0.486,0.442,0.422,0.222,0.195,north-northeast,3.6,No
2016/01/01,05:10,0.461,0.270,0.485,0.440,0.419,0.222,0.194,north-northeast,4.3,No
2016/01/01,05:20,0.460,0.270,0.485,0.440,0.418,0.221,0.195,north-northwest,4.9,No
2016/01/01,05:30,0.462,0.268,0.485,0.441,0.419,0.223,0.194,north-northwest,4.4,No
2016/01/01,05:40,0.460,0.270,0.485,0.442,0.420,0.221,0.194,northwest,5.1,No
2016/01/01,05:50,0.460,0.269,0.485,0.442,0.422,0.221,0.195,west-northwest,5.6,No
2016/01/01,06:00,0.461,0.271,0.486,0.441,0.419,0.223,0.194,west-northwest,7.3,No
2016/01/01,06:10,0.459,0.269,0.484,0.443,0.419,0.221,0.195,northwest,4.5,No
2016/01/01,06:20,0.459,0.270,0.485,0.440,0.421,0.222,0.194,north-northwest,3.9,No
2016/01/01,06:30,0.461,0.270,0.486,0.441,0.421,0.221,0.194,northwest,2.5,No
2016/01/01,06:40,0.461,0.269,0.486,0.441,0.420,0.222,0.195,-,CALM,No
2016/01/01,06:50,0.461,0.269,0.484,0.441,0.420,0.221,0.193,north,2.3,No
2016/01/01,07:00,0.461,0.270,0.484,0.440,0.420,0.221,0.194,north-northeast,1.6,No
2016/01/01,07:10,0.459,0.270,0.484,0.441,0.421,0.222,0.193,west,2.8,No
2016/01/01,07:20,0.459,0.269,0.486,0.442,0.421,0.221,0.194,west-northwest,6.4,No
2016/01/01,07:30,0.460,0.269,0.484,0.441,0.417,0.221,0.193,west-northwest,5.3,No
2016/01/01,07:40,0.459,0.269,0.483,0.438,0.418,0.222,0.194,west-northwest,7.8,No
2016/01/01,07:50,0.459,0.270,0.485,0.440,0.417,0.221,0.194,west-northwest,9.8,No
2016/01/01,08:00,0.459,0.269,0.485,0.441,0.419,0.221,0.194,west,10.9,No
2016/01/01,08:10,0.461,0.270,0.484,0.438,0.420,0.222,0.193,west,9.5,No
2016/01/01,08:20,0.462,0.269,0.484,0.439,0.420,0.219,0.195,west,9.2,No
2016/01/01,08:30,0.460,0.269,0.485,0.440,0.419,0.221,0.194,west,7.8,No
2016/01/01,08:40,0.462,0.270,0.483,0.439,0.419,0.220,0.193,west,7.0,No
2016/01/01,08:50,0.462,0.269,0.484,0.436,0.421,0.222,0.193,west,5.6,No
2016/01/01,09:00,0.461,0.270,0.482,0.439,0.419,0.220,0.193,west,5.0,No
2016/01/01,09:10,0.461,0.269,0.485,0.440,0.418,0.221,0.194,west,4.2,No
2016/01/01,09:20,0.461,0.270,0.485,0.441,0.419,0.222,0.194,northwest,3.9,No
2016/01/01,09:30,0.463,0.268,0.485,0.440,0.421,0.220,0.194,west-northwest,3.9,No
2016/01/01,09:40,0.462,0.268,0.484,0.438,0.420,0.221,0.194,west,5.3,No
2016/01/01,09:50,0.463,0.270,0.485,0.441,0.422,0.222,0.193,northwest,5.1,No
2016/01/01,10:00,0.461,0.268,0.482,0.440,0.420,0.221,0.193,west-northwest,4.5,No
2016/01/01,10:10,0.461,0.269,0.484,0.441,0.419,0.221,0.194,northwest,4.1,No
2016/01/01,10:20,0.461,0.269,0.485,0.444,0.420,0.221,0.195,northwest,3.9,No
2016/01/01,10:30,0.460,0.269,0.482,0.439,0.421,0.222,0.194,north-northwest,6.4,No
2016/01/01,10:40,0.459,0.270,0.482,0.441,0.420,0.221,0.195,north-northwest,5.6,No
2016/01/01,10:50,0.463,0.269,0.486,0.441,0.421,0.220,0.195,north-northwest,7.4,No
2016/01/01,11:00,0.461,0.269,0.485,0.441,0.421,0.221,0.194,north-northwest,7.4,No
2016/01/01,11:10,0.460,0.269,0.484,0.444,0.420,0.221,0.195,northwest,5.0,No
2016/01/01,11:20,0.464,0.270,0.484,0.439,0.421,0.222,0.195,north,4.2,No
2016/01/01,11:30,0.461,0.270,0.484,0.441,0.421,0.222,0.194,northeast,2.8,No
2016/01/01,11:40,0.463,0.268,0.484,0.442,0.421,0.222,0.195,northeast,3.2,No
2016/01/01,11:50,0.463,0.271,0.485,0.439,0.423,0.222,0.195,northeast,4.0,No
2016/01/01,12:00,0.464,0.268,0.482,0.444,0.421,0.221,0.195,northeast,3.3,No
2016/01/01,12:10,0.463,0.268,0.483,0.438,0.422,0.222,0.195,northeast,3.6,No
2016/01/01,12:20,0.462,0.271,0.484,0.441,0.422,0.223,0.194,northeast,2.8,No
2016/01/01,12:30,0.461,0.269,0.481,0.443,0.420,0.221,0.195,west,2.8,No
2016/01/01,12:40,0.463,0.269,0.486,0.441,0.422,0.222,0.195,west,0.8,No
2016/01/01,12:50,0.461,0.271,0.484,0.442,0.421,0.222,0.195,north,2.6,No
2016/01/01,13:00,0.461,0.269,0.483,0.443,0.421,0.221,0.195,northwest,9.5,No
2016/01/01,13:10,0.463,0.269,0.486,0.440,0.422,0.222,0.196,northwest,6.7,No
2016/01/01,13:20,0.463,0.270,0.483,0.443,0.421,0.223,0.195,west-northwest,6.6,No
2016/01/01,13:30,0.462,0.269,0.487,0.442,0.421,0.222,0.194,northwest,7.6,No
2016/01/01,13:40,0.463,0.270,0.483,0.443,0.422,0.221,0.195,northwest,4.8,No
2016/01/01,13:50,0.462,0.270,0.483,0.439,0.421,0.224,0.195,northwest,5.9,No
2016/01/01,14:00,0.462,0.268,0.483,0.440,0.421,0.222,0.194,northwest,7.1,No
2016/01/01,14:10,0.465,0.270,0.483,0.440,0.421,0.223,0.194,west-northwest,9.5,No
2016/01/01,14:20,0.463,0.270,0.487,0.440,0.420,0.221,0.196,west-northwest,10.7,No
2016/01/01,14:30,0.463,0.269,0.484,0.442,0.423,0.222,0.196,west-northwest,9.3,No
2016/01/01,14:40,0.465,0.269,0.486,0.441,0.421,0.222,0.195,northwest,7.5,No
2016/01/01,14:50,0.462,0.270,0.487,0.443,0.420,0.223,0.196,northwest,8.4,No
2016/01/01,15:00,0.464,0.272,0.484,0.442,0.422,0.221,0.194,northwest,12.0,No
2016/01/01,15:10,0.463,0.270,0.487,0.441,0.421,0.222,0.195,north-northwest,8.2,No
2016/01/01,15:20,0.463,0.269,0.487,0.443,0.423,0.222,0.197,northwest,7.0,No
2016/01/01,15:30,0.464,0.272,0.485,0.441,0.422,0.221,0.196,northwest,5.3,No
2016/01/01,15:40,0.463,0.271,0.486,0.444,0.422,0.222,0.195,northwest,5.4,No
2016/01/01,15:50,0.461,0.271,0.485,0.444,0.420,0.222,0.195,northwest,6.2,No
2016/01/01,16:00,0.465,0.272,0.485,0.442,0.424,0.221,0.195,north,2.9,No
2016/01/01,16:10,0.463,0.271,0.486,0.443,0.420,0.221,0.195,north,2.3,No
2016/01/01,16:20,0.462,0.270,0.485,0.445,0.420,0.221,0.196,west-northwest,1.7,No
2016/01/01,16:30,0.464,0.268,0.485,0.442,0.422,0.222,0.195,northwest,2.6,No
2016/01/01,16:40,0.462,0.271,0.488,0.443,0.422,0.222,0.195,northwest,4.2,No
2016/01/01,16:50,0.462,0.271,0.487,0.444,0.420,0.222,0.196,northwest,3.3,No
2016/01/01,17:00,0.462,0.270,0.487,0.442,0.420,0.222,0.196,west-northwest,4.8,No
2016/01/01,17:10,0.463,0.270,0.487,0.443,0.420,0.222,0.194,west-northwest,5.5,No
2016/01/01,17:20,0.463,0.271,0.488,0.443,0.420,0.222,0.195,west-northwest,5.4,No
2016/01/01,17:30,0.463,0.271,0.485,0.442,0.420,0.222,0.195,west-northwest,4.8,No
2016/01/01,17:40,0.463,0.270,0.486,0.441,0.422,0.223,0.195,west-northwest,5.4,No
2016/01/01,17:50,0.462,0.270,0.487,0.443,0.422,0.221,0.193,west-northwest,4.0,No
2016/01/01,18:00,0.462,0.270,0.485,0.443,0.420,0.222,0.195,west-northwest,3.5,No
2016/01/01,18:10,0.460,0.272,0.486,0.442,0.420,0.222,0.194,west-northwest,4.8,No
2016/01/01,18:20,0.463,0.270,0.486,0.441,0.421,0.223,0.195,west-northwest,4.9,No
2016/01/01,18:30,0.463,0.271,0.487,0.443,0.420,0.224,0.195,northwest,4.6,No
2016/01/01,18:40,0.462,0.270,0.484,0.444,0.420,0.222,0.195,northwest,3.7,No
2016/01/01,18:50,0.462,0.270,0.486,0.443,0.420,0.222,0.195,northwest,3.0,No
2016/01/01,19:00,0.463,0.270,0.486,0.441,0.420,0.223,0.194,northwest,2.1,No
2016/01/01,19:10,0.462,0.270,0.487,0.443,0.421,0.222,0.196,northwest,2.8,No
2016/01/01,19:20,0.462,0.269,0.487,0.443,0.422,0.222,0.195,north-northwest,2.6,No
2016/01/01,19:30,0.462,0.270,0.485,0.442,0.420,0.222,0.194,north-northwest,2.0,No
2016/01/01,19:40,0.463,0.270,0.485,0.441,0.421,0.223,0.197,northwest,2.2,No
2016/01/01,19:50,0.463,0.270,0.486,0.443,0.421,0.223,0.195,northwest,2.3,No
2016/01/01,20:00,0.461,0.270,0.486,0.444,0.422,0.223,0.195,west-northwest,2.2,No
2016/01/01,20:10,0.463,0.269,0.485,0.442,0.420,0.222,0.195,northwest,1.8,No
2016/01/01,20:20,0.463,0.270,0.488,0.443,0.420,0.221,0.195,northwest,5.3,No
2016/01/01,20:30,0.463,0.269,0.487,0.444,0.421,0.222,0.195,northwest,8.1,No
2016/01/01,20:40,0.462,0.270,0.485,0.445,0.421,0.222,0.196,west-northwest,8.2,No
2016/01/01,20:50,0.461,0.271,0.485,0.443,0.420,0.222,0.195,northwest,3.2,No
2016/01/01,21:00,0.462,0.271,0.487,0.444,0.420,0.223,0.195,west,1.3,No
2016/01/01,21:10,0.463,0.270,0.487,0.443,0.419,0.223,0.196,west-northwest,9.5,No
2016/01/01,21:20,0.463,0.269,0.486,0.443,0.422,0.222,0.195,west-northwest,9.5,No
2016/01/01,21:30,0.463,0.271,0.485,0.445,0.421,0.223,0.196,west-northwest,8.4,No
2016/01/01,21:40,0.462,0.271,0.486,0.441,0.421,0.223,0.195,northwest,6.3,No
2016/01/01,21:50,0.464,0.269,0.487,0.441,0.422,0.222,0.195,west-northwest,6.6,No
2016/01/01,22:00,0.463,0.269,0.485,0.443,0.422,0.222,0.196,west-northwest,7.0,No
2016/01/01,22:10,0.462,0.270,0.487,0.444,0.422,0.221,0.195,northwest,7.3,No
2016/01/01,22:20,0.464,0.270,0.486,0.442,0.420,0.223,0.195,northwest,7.1,No
2016/01/01,22:30,0.463,0.271,0.486,0.441,0.419,0.223,0.196,west-northwest,7.3,No
2016/01/01,22:40,0.464,0.270,0.485,0.443,0.421,0.222,0.195,west-northwest,7.6,No
2016/01/01,22:50,0.462,0.269,0.488,0.444,0.422,0.223,0.195,west-northwest,7.3,No
2016/01/01,23:00,0.464,0.270,0.485,0.443,0.422,0.223,0.196,west-northwest,6.1,No
2016/01/01,23:10,0.463,0.271,0.485,0.442,0.420,0.222,0.195,west-northwest,5.8,No
2016/01/01,23:20,0.463,0.270,0.485,0.442,0.420,0.221,0.195,west-northwest,6.5,No
2016/01/01,23:30,0.463,0.270,0.487,0.443,0.420,0.222,0.195,west-northwest,6.6,No
2016/01/01,23:40,0.465,0.271,0.487,0.443,0.422,0.221,0.195,west-northwest,5.7,No
2016/01/01,23:50,0.463,0.270,0.486,0.441,0.420,0.223,0.196,west,5.2,No
